User: anonymous   Login
Location: ??? ???
(33.4974°N, 35.4618°E)
Time: 23:31:52
(UTC+00:00)
Language:

Meteor 2-10 Rocket - Orbit

View from above orbital plane
View from above orbital plane
View from above satellite
View from above satellite

Ground track
Ground track

The orbit data is extracted from the following two-line orbital elements,

1 14453U 83109B   21015.54998648  .00000020  00000-0  31625-5 0  9994
2 14453  81.1650 230.0127 0104001 238.1188 120.9840 14.24742270933756
Epoch (UTC): 15 January 2021 13:11:58
Eccentricity: 0.0104001
inclination: 81.1650°
perigee height: 734 km
apogee height: 884 km
right ascension of ascending node: 230.0127°
argument of perigee: 238.1188°
revolutions per day: 14.24742270
mean anomaly at epoch: 120.9840°
orbit number at epoch: 93375

The dashed part of the orbit path shows where the satellite is in the earth's shadow,  

DLR